Torna al catalogo

CHECKMATE 5

AttivoMilitarePO
NORAD 56163·PAYLOAD·🇺🇸 United States

Lanciato Apr 2, 2023 da Vandenberg Space Force Base

Loading…

Prossimi Passaggi (prossime 24 ore)

TLE

AggiornatoSource: Space-Track

Epoca: Sep 14, 2026, 11:39 UTC

1 56163U 23050B   26257.48599424  .00000087  00000-0  67090-4 0  9999
2 56163  81.0049 345.8980 0007430  82.5778 277.6222 13.84995888174523

Traccia CHECKMATE 5 in tempo reale con AllMySat

Download on the App Store